Other Public Products
Issued by NWS Grand Forks, ND

Home | Current Version | Previous Version | Graphics & Text | Print | Product List | Glossary On
Versions: 1 2 3 4 5 6 7 8 9 10 11 12 13 14 15 16 17 18 19 20 21 22 23 24 25 26 27 28 29 30 31 32 33 34 35 36 37 38 39 40 41 42 43 44 45 46 47 48 49 50
000
FPUS83 KFGF 250431
OPUFGF
PRAIRIE TO PINES WEATHER ROUNDUP
NATIONAL WEATHER SERVICE EASTERN NORTH DAKOTA/GRAND FORKS ND
1100 PM CDT SUN JUL 24 2016

 **SATELLITE DATA USED TO AUGMENT SKY COVER AT AUTOMATED STATIONS**
 *****  WEATHER ACROSS EASTERN NORTH DAKOTA  *****

CITY           SKY/WX    TMP DP  RH WIND       PRES   REMARKS
GRAND FORKS    CLEAR     66  60  81 W7        29.94S
GRAND FORKS AF CLEAR     66  60  82 W7        29.96R
GRAND CITY NWS   N/A     66 N/A N/A W6          N/A
BUXTON           N/A     66  65  96 W6          N/A
DEVILS LAKE    CLEAR     66  59  78 W6        30.00R
FARGO          CLEAR     68  60  75 W7        29.98R
WAHPETON ARPT  CLEAR     63  57  82 W5        30.01R
$$

 *****  WEATHER ACROSS CENTRAL AND WESTERN NORTH DAKOTA  *****

CITY           SKY/WX    TMP DP  RH WIND       PRES   REMARKS
JAMESTOWN      CLEAR     65  59  81 S3        30.02R
BISMARCK       CLEAR     65  61  87 SE7       30.04R
MINOT          CLEAR     70  59  68 E3        30.00R
MINOT AFB      CLEAR     63  59  88 S2        30.00R
GARRISON         N/A     65  61  87 CALM      30.01R
WILLISTON      CLEAR     68  59  73 N3        29.99R
DICKINSON      CLEAR     64  53  67 SE8       30.03R
HETTINGER      CLEAR     71  50  47 SE8       30.08R
$$

 *****  OTHER OBSERVATIONS NORTHEAST NORTH DAKOTA  *****

CITY           SKY/WX    TMP DP  RH WIND       PRES   REMARKS
WALHALLA       FAIR      66  63  88 NW5       29.95S
LANGDON        FAIR      61  61 100 W5        29.99R
CAVALIER       FAIR      64  63  94 W5        29.95R
GRAFTON        FAIR      68  64  88 W8        29.96S
CANDO          FAIR      59  59 100 NW5       30.01S
FORT TOTTEN      N/A     64  56  75 CALM      29.95S
ROLLA            N/A     59  57  94 W7        30.01S
RUGBY          NOT AVBL
 ***** THE ABOVE OBSERVATIONS ARE NON NWS ARE NOT QUALITY
        CONTROLLED AND MAY MIS-REPORT RAIN FOR SNOW...
$$

 *****  OTHER OBSERVATIONS SOUTHEAST NORTH DAKOTA *****

CITY           SKY/WX    TMP DP  RH WIND       PRES   REMARKS
COOPERSTOWN    NOT AVBL
VALLEY CITY      N/A     63  63 100 W6        30.03S
OAKES            N/A    N/A N/A N/A MISG        N/A
GWINNER        FAIR      63  59  88 W8        30.03S
SHEYENNE NWR     N/A     69  58  69 NW5       29.95S
BUFFALO          N/A     64  58  79 W5          N/A
WYNDMERE         N/A     66  61  82 W3          N/A
 ***** THE ABOVE OBSERVATIONS ARE NON NWS ARE NOT QUALITY
       CONTROLLED AND MAY MIS-REPORT RAIN FOR SNOW...
$$

  *****  WEATHER ACROSS NORTHERN MINNESOTA  *****

CITY           SKY/WX    TMP DP  RH WIND       PRES   REMARKS
FLAG ISLAND    CLEAR     66  61  82 W10       29.89S
WARROAD        CLEAR     64  61  88 W5        29.93R
ROSEAU         CLEAR     66  63  88 W7        29.93R
HALLOCK        CLEAR     66  64  94 CALM      29.93S
THF RVR FALLS  PTCLDY    66  62  87 W7        29.96R
HALSTAD        NOT AVBL
FOSSTON        CLEAR     63  57  82 W5        29.97S
BAUDETTE       CLEAR     63  60  90 W6        29.91R
WASKISH        CLEAR     70  63  78 W10G18    29.93R
CROOKSTON      CLEAR     64  61  88 W6        29.96S
$$
  *****  WEATHER ACROSS CENTRAL AND WEST MINNESOTA  *****

CITY           SKY/WX    TMP DP  RH WIND       PRES   REMARKS
BEMIDJI        CLEAR     66  61  82 NW6       29.96R
PARK RAPIDS    CLEAR     64  59  83 W8        29.98R
WADENA         CLEAR     63  57  82 W5        29.99S
DETROIT LAKES  CLEAR     68  59  73 W8        30.01R
MOORHEAD       CLEAR     68  61  77 W5        30.00R
FERGUS FALLS   CLEAR     64  61  88 W3        30.01S
ELBOW LAKE     FAIR      63  60  90 SW7       30.01S
MORRIS MN      CLEAR     64  61  88 W5        30.01S
STAPLES        CLEAR     63  57  82 W7        29.99R
WHEATON        CLEAR     68  63  83 SW5       30.03R
$$
  *****  WEATHER ELSEWHERE ACROSS MINNESOTA  *****

CITY           SKY/WX    TMP DP  RH WIND       PRES   REMARKS
DULUTH         PTCLDY    69  61  75 W9        29.90R
INTRNTL FALLS  CLEAR     64  58  80 W6        29.89R
ELY            PTCLDY    66  57  72 W7        29.88S
CLOQUET        CLEAR     68  57  68 W7        29.92R
BRAINERD       CLEAR     71  60  68 W7        29.97R
HIBBING        CLEAR     67  59  75 W7        29.91R
ALEXANDRIA     CLEAR     66  58  75 W6        30.02R
SAINT CLOUD    CLEAR     69  60  73 W9        29.97R
MINNEAPOLIS    CLEAR     75  63  66 W8        29.97R
$$

  *****  WEATHER ACROSS SOUTH DAKOTA  *****

CITY           SKY/WX    TMP DP  RH WIND       PRES   REMARKS
SIOUX FALLS    PTCLDY    68  63  84 SW3       30.08R
BROOKINGS      CLEAR     68  64  87 CALM      30.08R
WATERTOWN      CLEAR     69  60  73 W5        30.07R
HURON          CLEAR     71  60  68 SW6       30.06R
SISSETON         N/A     68  58  70 W7        30.01R
ABERDEEN       CLEAR     66  59  78 S3        30.05R
MITCHELL       CLEAR     70  61  73 SW3       30.09R
PIERRE         CLEAR     66  51  58 E3        30.06R
MOBRIDGE       CLEAR     71  56  58 E5        30.04R
RAPID CITY     CLEAR     69  50  50 S6        30.11R
$$

  *****  SOME WEATHER IN NEARBY STATES *****

CITY           SKY/WX    TMP DP  RH WIND       PRES   REMARKS
GLASGOW MT     CLEAR     68  53  58 NE9       29.98R
GREAT FALLS MT CLEAR     74  38  27 E6        30.01R
CHEYENNE WY    CLEAR     60  54  80 S12       30.31R
SCOTTSBLUFF NE CLEAR     66  56  70 SE6       30.18R
OMAHA NE       PTCLDY    72  67  84 N7        30.04R
DES MOINES IA  PTCLDY    77  66  68 N7        30.01R
DAVENPORT IA   CLOUDY    72  68  87 NW7       29.94S
CHICAGO IL     CLOUDY    78  71  79 SW7       29.89S
EAU CLAIRE WI  CLEAR     70  64  81 SW7       29.94R
LA CROSSE WI   PTCLDY    75  65  70 NW9       29.94R
$$

  *****  SOME NATIONAL WEATHER *****

CITY           SKY/WX    TMP DP  RH WIND       PRES   REMARKS
LA GUARDIA NY  MOCLDY    85  68  56 SW6       29.96S
RALEIGH NC     PTCLDY    83  73  72 S6        30.04S
ATLANTA GA     PTCLDY    82  70  66 CALM      30.06F
NEW ORLEANS LA CLOUDY    83  78  85 SE3       29.97S HX  93
OKLAHOMA CITY  CLEAR     84  72  67 S5        29.97R
ALBUQUERQUE NM CLOUDY    77  52  41 N5        30.24R
SALT LAKE CITY CLEAR     83  40  21 CALM      30.02R
LOS ANGELES CA PTCLDY    71  66  84 W7        29.90R
BOISE ID       CLEAR     80  40  23 CALM      29.96S
SEATTLE WA     PTCLDY    72  56  57 NW7       30.02F
$$

*** WEATHER ACROSS MANITOBA...SASKATCHEWAN AND ONTARIO ***
                ***ONTARIO***

CITY           SKY/WX    TMP DP  RH WIND       PRES   REMARKS
GERALDTON      PTCLDY    64  61  88 W7        29.68F
THUNDER BAY    PTCLDY    68  59  73 W7        29.75S
SIOUX LOOKOUT  CLOUDY    63  61  94 NW10      29.79R
TORONTO        MOCLDY    72  66  83 S6        29.89F
BIG TROUT LK   CLOUDY    61  59  94 NW15G26   29.60R
PICKLE LAKE    NOT AVBL
DRYDEN         CLEAR     63  59  88 W12G17    29.84R
KENORA         PTCLDY    64  57  77 W5        29.89R
$$
                *** MANITOBA***

CITY           SKY/WX    TMP DP  RH WIND       PRES   REMARKS
BRANDON        CLEAR     59  57  94 W8        29.96R
DAUPHIN        CLEAR     63  59  88 W6        29.91R
ISLAND LAKE    PTCLDY    64  63  94 W7        29.78R
PILOT MOUND      N/A     63  59  88 W2          N/A
THE PAS        PTCLDY    70  59  68 SW6       29.80S
THOMPSON       PTCLDY    59  57  94 VRB2      29.78S
WINNIPEG       CLEAR     61  59  94 W7        29.92R
LYNN LAKE      MOCLDY    63  59  88 MISG      29.70F
CHURCHILL      MOCLDY    48  48 100 E8        29.81F
GILLAM         PTCLDY    61  54  77 NE7       29.77S
$$
                ***SASKATCHEWAN***

CITY           SKY/WX    TMP DP  RH WIND       PRES   REMARKS
ESTEVAN        CLEAR     64  61  88 E3        30.01R
KINDERSLEY     PTCLDY    64  59  82 SE8       29.95R
LLOYDMINSTER   CLOUDY    68  54  60 NW24G38   29.94R
PRINCE ALBERT  PTCLDY    66  59  77 SW6       29.86R
REGINA         CLEAR     63  55  77 S6        29.98R
YORKTON        CLEAR     66  57  72 SW7       29.95R  C1F1C2F2C3F3C4F4C5F5C6F6C7F7C8F8C9F9CaFaCbFbCcFcCdFdCe!


USA.gov is the U.S. government's official web portal to all federal, state and local government web resources and services.